Home > Weather > Charleston > Past weeks

Flag for USA Weather for the Past 2 Weeks in Charleston, South Carolina, USA

Now
72 °F

Passing clouds.


Feels Like: 69 °F
Forecast: 71 / 83 °F
Wind: 5 mph from Southwest

Location: Charleston Air Force Base Reporting Station

Current Time: May 2, 2016 at 2:46:40 AM

Latest Report: May 2, 2016 at 1:56 AM


Visibility: 10 mi

Pressure: 30.02 "Hg

Humidity: 91%

Dew Point: 69 °F

Location of CharlestonLocation

Historic Weather in Charleston — Graph

°F

Charleston Temperature Yesterday

Maximum temperature yesterday: 81 °F (at 11:56 AM)
Minimum temperature yesterday: 73 °F (at 12:56 AM)
Average temperature yesterday: 76 °F

High & Low Weather Summary for the Past Weeks

 TemperatureHumidityPressure
High88 °F (Apr 29, 1:56 PM)96% (Apr 30, 6:56 AM)30.37 "Hg (Apr 30, 6:56 AM)
Low43 °F (Apr 18, 6:56 AM)18% (Apr 17, 4:56 PM)29.83 "Hg (Apr 23, 4:56 PM)
Average70 °F66%30.05 "Hg
* Reported Apr 16 11:56 PM — May 1 11:56 PM, Charleston, Weather by CustomWeather, © 2016

Note: Actual official high and low records may vary slightly from our data, if they occured in-between our weather recording intervals... More about our weather records

Advertising

Charleston Weather History for the Previous 24 Hours

Scroll right to see more
 ConditionsComfort  
Time TempWeatherWind HumidityBarometerVisibility
11:56 PM
Sun, May 1
73 °FPassing clouds.8 mph88%30.03 "Hg10 mi
10:56 PM73 °FPassing clouds.10 mph88%30.05 "Hg10 mi
9:56 PM74 °FPassing clouds.9 mph85%30.05 "Hg10 mi
8:56 PM74 °FMore clouds than sun.8 mph85%30.04 "Hg10 mi
7:56 PM75 °FMore clouds than sun.9 mph85%30.04 "Hg10 mi
6:56 PM76 °FMostly cloudy.6 mph82%30.04 "Hg10 mi
5:56 PM77 °FThunderstorms. More clouds than sun.8 mph77%30.05 "Hg10 mi
4:56 PM78 °FBroken clouds.8 mph71%30.04 "Hg10 mi
3:56 PM79 °FBroken clouds.14 mph69%30.03 "Hg10 mi
2:56 PM78 °FLight rain. Broken clouds.9 mph79%30.03 "Hg10 mi
1:56 PM79 °FPartly sunny.10 mph69%30.05 "Hg10 mi
12:56 PM77 °FLight rain. Partly sunny.12 mph82%30.07 "Hg7 mi
11:56 AM81 °FPartly sunny.14 mph67%30.09 "Hg10 mi
10:56 AM80 °FPartly sunny.15 mph64%30.08 "Hg10 mi
9:56 AM79 °FPartly sunny.10 mph67%30.08 "Hg10 mi
8:56 AM78 °FBroken clouds.13 mph69%30.07 "Hg10 mi
7:56 AM75 °FScattered clouds.14 mph74%30.05 "Hg10 mi
6:56 AM73 °FPartly cloudy.14 mph76%30.05 "Hg10 mi
5:56 AM73 °FPartly cloudy.13 mph76%30.03 "Hg10 mi
4:56 AM73 °FPartly cloudy.14 mph76%30.03 "Hg10 mi
3:56 AM73 °FPartly cloudy.8 mph79%30.05 "Hg10 mi
2:56 AM73 °FPartly cloudy.9 mph81%30.04 "Hg10 mi
Weather by CustomWeather, © 2016

See weather overviewHow to use our weather pages